Back to catalog

KUIPER-00050

AliveCommunicationsLEO
NORAD 64510·PAYLOAD·🇺🇸 United States

Launched Jun 23, 2025 from Cape Canaveral Space Force Station

Loading…

Next Passes (next 24 hours)

TLE

FreshSource: CelesTrak SupGP

Epoch: Sep 14, 2026, 14:34 UTC

1 64510C 25134L   26257.60715278 -.00002554  00000+0 -33435-3 0  2574
2 64510  51.8985  95.1627 0000757 111.2008  90.9027 14.79928505    14

Track KUIPER-00050 in real time with AllMySat

Download on the App Store